Location: Acheville
(50.3840°N, 2.8827°E)
Time: 00:23:38
(UTC+00:00)

FENGYUN 1C DEB - Pass Details

Date: 08 February 2023
Orbit: 634 x 940 km, 98.3° (Epoch: 28 March)

Event Time Altitude Azimuth Distance (km) Brightness Sun altitude
Rises 05:57:57 0° 20° (NNE) 2,947 ? -12.3°
Reaches altitude 10° 06:00:15 10° 28° (NNE) 2,040 ? -11.9°
Maximum altitude 06:04:24 39° 99° (E) 974 ? -11.3°
Drops below altitude 10° 06:08:40 10° 168° (SSE) 2,107 ? -10.6°
Sets 06:11:05 0° 176° (S) 3,056 ? -10.2°
